DELTA 1 DEB, 7036

Orbit data source: Space-Track

DELTA 1 DEB, 7036 is space debris in SSO originally from a launch on Tue, 06 Nov 1973 UTC launched from the Air Force Western Test Range (AFWTR). Debris objects in space refer to the collection of defunct objects orbiting the Earth. Examples of debris include non-operational satellites, rocket bodies, and fragments generated from explosions, collisions, or faulty payload assembly.

Loading next visibility...
Identifier
7036, 1973-086AC
Orbit
SSO
Country
Flag of USUS
Related business
Manufacturer
Unknown
Mission
Spacecraft
Bus & Motor
Unknown
Mass
Unknown
Launch date (UTC)
1973-11-06 (53 years ago)
Launch vehicle
Unknown
Launch site
Air Force Western Test Range (AFWTR)
Object type
Payload
Rocket body
Debris
Shape & HBR
Unknown shape, 0.1 m
Radar Cross Section
Medium (>0.1 m² and <1 m²)

Expand to show TLE details & history
Last TLE update: 7 hours ago

TLE from 7 hours ago
0 DELTA 1 DEB
1  7036U 73086AC  26133.40117832  .00001033  00000-0  65564-2 0  9996
2  7036 101.6008 108.3817 0039939 269.1803 245.7135 12.55675488392770
Epoch: 2026-05-13T09:37Z
TLE epoch observation values (Epoch: 2026-05-13T09:37:41.806Z)
Latitude
24.99341°
Longitude
-81.73983°
Altitude
1,456.532 km
Speed
7.13 km/s
True Right ascension
19h 35m 23s
True Declination
24° 52' 25"
Sunlit
Object was in daylight at epoch
Visualization orbit readout
Latitude
Unknown
Longitude
Unknown
Altitude
Unknown
Speed
Unknown
Apparent Right ascension
Unknown
Apparent Declination
Unknown
Sunlit
N/A
Visualization observer readout
Local Sidereal Time
00:49:57
Azimuth
Unknown
Elevation
Unknown
Doppler factor
Unknown
Orbital elements
Apogee altitude
1,469.594 km
Perigee altitude
1,407.158 km
Semi-major axis
7,816.513 km
Eccentricity
0.00399
Inclination
101.6008°
RAAN
108.3817°
Arg. of periapsis
269.1803°
True anomaly
245.29719°
Mean anomaly
245.7135°
Eccentric anomaly
245.50526°
Mean motion
3.14068 °/min
Orbital period
114.62 mins
BSTAR
0.0065564
Loading maneuver chart data...
Computing Atmospheric mass density...
Loading historical data...
Loading historical data...
Loading historical data...
Loading historical data...
Loading historical data...
Loading historical data...
Loading historical data...

Documentation

Showing up to 5 results
|